Regional Weather Roundup
Issued by NWS

Home | Current Version | Previous Version | Text Only | Print | Product List | Glossary Off
Versions: 1 2 3 4 5 6 7 8 9 10 11 12 13 14 15 16 17 18 19 20 21 22 23 24 25 26 27 28 29 30 31 32 33 34 35 36 37 38 39 40 41 42 43 44 45 46 47 48 49 50

000
ASUS43 KLMK 221102
RWRKY
KENTUCKY REGIONAL WEATHER ROUNDUP
NATIONAL WEATHER SERVICE LOUISVILLE KY
700 AM EDT THU JUN 22 2017

NOTE "FAIR" INDICATES FEW OR NO CLOUDS BELOW 12,000 FEET
WITH NO SIGNIFICANT WEATHER AND/OR OBSTRUCTIONS TO VISIBILITY.

KYZ001>023-026-027-061>063-070>075-221200-
WESTERN AND SOUTH CENTRAL KENTUCKY

CITY           SKY/WX    TMP DP  RH WIND       PRES   REMARKS
PADUCAH        CLOUDY    74  68  81 SE6       29.93F
HENDERSON      CLOUDY    73  69  87 S7        29.97S
OWENSBORO      CLOUDY    73  69  87 SE8       29.98S
HOPKINSVILLE   CLOUDY    73  68  83 SE6       29.97S
BOWLING GREEN  CLOUDY    72  70  93 SE3       30.01S
GLASGOW        NOT AVBL
$$

KYZ024-025-028>034-038-045-046-053-221200-
NORTH CENTRAL KENTUCKY

CITY           SKY/WX    TMP DP  RH WIND       PRES   REMARKS
LOUISVILLE/SDF CLOUDY    74  68  81 E6        30.00R
LOUISVILLE/LOU CLOUDY    74  70  87 S3        30.02R
FORT KNOX      CLOUDY    71  68  92 S5        30.00S
$$

KYZ035>037-039>044-047>052-055>060-089>105-221200-
NORTHEAST KENTUCKY

CITY           SKY/WX    TMP DP  RH WIND       PRES   REMARKS
LEXINGTON      MOCLDY    70  66  87 S7        30.05R
COVINGTON      CLOUDY    70  67  90 S6        30.01S
FRANKFORT      CLOUDY    71  65  81 S3        30.03R
$$

KYZ054-064>069-076>088-106>120-221200-
SOUTHEAST KENTUCKY

CITY           SKY/WX    TMP DP  RH WIND       PRES   REMARKS
JACKSON        CLOUDY    70  65  84 CALM      30.09S
LONDON         CLOUDY    67  64  90 CALM      30.08S
SOMERSET       MOCLDY    66  66 100 CALM      30.08S
MIDDLESBORO    CLOUDY    67  67 100 CALM      30.11R
MONTICELLO     CLOUDY    69  67  93 VRB7      30.07F
$$





USA.gov is the U.S. government's official web portal to all federal, state and local government web resources and services.